• Processing (Info)

  • MPEC 2020-C03 : 2020 BF14

    The following Minor Planet Electronic Circular may be linked-to from your own Web pages, but must not otherwise be redistributed electronically.

    A form allowing access to any MPEC is at the bottom of this page.


    Read MPEC 2020-C02 Read MPEC 2020-C04


    M.P.E.C. 2020-C03                              Issued 2020 February 1, 05:12 UT
    
         The Minor Planet Electronic Circulars contain information on unusual
             minor planets and routine data on comets.  They are published
        on behalf of Division F of the International Astronomical Union by the
              Minor Planet Center, Smithsonian Astrophysical Observatory,
                              Cambridge, MA 02138, U.S.A.
    
                 Prepared using the Tamkin Foundation Computer Network
    
                                  MPC@CFA.HARVARD.EDU
                URL https://www.minorplanetcenter.net/    ISSN 1523-6714
    
                                    2020 BF14                                
    
    
    Observations:
         K20B14F* C2020 01 23.65170615 09 55.872-24 32 15.16         21.63wUEC003F51
         K20B14F  C2020 01 23.65490615 09 56.068-24 32 22.69         21.61wUEC003F51
         K20B14F  C2020 01 23.65810215 09 56.254-24 32 30.17         21.73wUEC003F51
         K20B14F  C2020 01 23.66130815 09 56.464-24 32 38.05         21.48wUEC003F51
         K20B14F  C2020 01 24.61854415 10 57.989-25 10 16.42         21.44wUEC003F51
         K20B14F  C2020 01 24.62238715 10 58.218-25 10 25.63         21.83wUEC003F51
         K20B14F  C2020 01 24.62622815 10 58.446-25 10 34.46         21.54wUEC003F51
         K20B14F  C2020 01 24.63011215 10 58.685-25 10 43.85         21.81wUEC003F51
         K20B14F KC2020 01 25.62641715 12 01.87 -25 49 43.0          21.1 GVEC003474
         K20B14F KC2020 01 25.63345715 12 02.25 -25 50 00.6          21.5 GVEC003474
         K20B14F KC2020 01 25.64055815 12 02.74 -25 50 18.9          21.1 GVEC003474
         K20B14F ^C2020 01 31.66127315 18 04.000-29 47 37.66         21.37GVEC003568
         K20B14F ^C2020 01 31.66221815 18 04.050-29 47 40.00         21.07GVEC003568
         K20B14F ^C2020 01 31.66317215 18 04.111-29 47 42.34         20.52GVEC003568
         K20B14F ^C2020 01 31.66412115 18 04.158-29 47 44.51         20.73GVEC003568
         K20B14F ^C2020 01 31.66506615 18 04.204-29 47 46.89         20.40GVEC003568
         K20B14F ^C2020 01 31.66601215 18 04.252-29 47 48.95         19.94GVEC003568
         K20B14F ^C2020 01 31.66697115 18 04.305-29 47 51.28         19.23GVEC003568
         K20B14F ^C2020 01 31.66791915 18 04.355-29 47 53.50         19.19GVEC003568
         K20B14F ^C2020 01 31.66886615 18 04.405-29 47 55.76         19.14GVEC003568
         K20B14F ^C2020 01 31.66981415 18 04.454-29 47 58.00         19.17GVEC003568
    
    Observer details:
    474 Mount John Observatory, Lake Tekapo.  Observers A. C. Gilmore, P. M. 
       Kilmartin.  Measurer P. M. Kilmartin.  1.0-m f/7.7 reflector + CCD.
    568 Mauna Kea.  Observers R. Wainscoat, C. Wipper, T. Burdullis.  Measurers R. 
       Weryk, R. Wainscoat.  3.6-m Canada-France-Hawaii Telescope + CCD.
    F51 Pan-STARRS 1, Haleakala.  Observers J. Bulger, T. Lowe, A. Schultz, M. 
       Willman.  Measurers K. Chambers, S. Chastel, T. de Boer, L. Denneau, J. 
       Fairlamb, H. Flewelling, M. Huber, C.-C. Lin, E. Magnier, Y. Ramanjooloo, R. 
       Wainscoat, R. Weryk.  1.8-m Ritchey-Chretien + CCD.
    
    Orbital elements:
    2020 BF14                                           PHA, Earth MOID = 0.0445 AU
    Epoch 2020 May 31.0 TT = JDT 2459000.5                  Bell
    M 137.11509              (2000.0)            P               Q
    n   0.67641559     Peri.   83.49206     +0.26076640     -0.95914374
    a   1.2852678      Node   349.27099     +0.47111499     +0.22565288
    e   0.4753895      Incl.   36.12240     +0.84264557     +0.17065776
    P   1.46           H   19.0           G   0.15           U   7
    Residuals in seconds of arc
    200123 F51  0.0   0.0     200124 F51  0.1+  0.0     200131 568  0.1+  0.0
    200123 F51  0.0   0.1+    200125 474 (0.2-  1.8+)   200131 568  0.0   0.1-
    200123 F51  0.2-  0.1+    200125 474  0.9-  0.9+    200131 568  0.0   0.1+
    200123 F51  0.0   0.1-    200125 474  0.2-  0.5-    200131 568  0.0   0.0
    200124 F51  0.2+  0.1-    200131 568  0.0   0.1+    200131 568  0.0   0.0
    200124 F51  0.1+  0.2-    200131 568  0.0   0.0     200131 568  0.0   0.0
    200124 F51  0.0   0.1+    200131 568  0.1+  0.1-    200131 568  0.0   0.0
    
    Ephemeris:
    2020 BF14                a,e,i = 1.29, 0.48, 36                  q = 0.6743
    Date    TT    R. A. (2000) Decl.     Delta      r    Elong.  Phase     V
    2020 01 02    14 45 11.0 -10 13 01   0.9908  0.9705    58.9    60.2    21.1
    ...
    2020 01 17    15 02 32.9 -20 10 19   0.9923  1.0928    67.2    56.0    21.2
    ...
    2020 01 25    15 11 21.8 -25 25 09   0.9827  1.1564    72.0    54.1    21.3
    ...
    2020 01 31    15 17 25.9 -29 21 24   0.9720  1.2029    75.8    52.6    21.3
    2020 02 01    15 18 22.9 -30 00 51   0.9700  1.2105    76.5    52.3    21.3
    2020 02 02    15 19 18.7 -30 40 21   0.9680  1.2181    77.2    52.1    21.3
    ...
    2020 02 08    15 24 24.5 -34 38 08   0.9548  1.2628    81.2    50.5    21.3
    ...
    2020 02 16    15 29 32.8 -39 58 03   0.9357  1.3202    86.6    48.3    21.3
    ...
    2020 03 02    15 30 44.7 -50 03 25   0.9012  1.4206    97.2    43.8    21.2
    
    A. U. Tomatic                (C) Copyright 2020 MPC           M.P.E.C. 2020-C03
    


    Read MPEC 2020-C02 Read MPEC 2020-C04


    MPEC number:

    Enter an MPEC number in one of the following forms:

    • 1997-B01 (the full form)
    • J97B01 (the packed version of the full form)
    • B01 (the abbreviated form)